Regional Weather Roundup
Issued by NWS

Home | Current Version | Previous Version | Graphics & Text | Print | Product List | Glossary On
Versions: 1 2 3 4 5 6 7 8 9 10 11 12 13 14 15 16 17 18 19 20 21 22 23 24 25 26 27 28 29 30 31 32 33 34 35 36 37 38 39 40 41 42 43 44 45 46 47 48 49 50
000
ASUS43 KMPX 250310
RWRMN
WEATHER ROUNDUP FOR MINNESOTA
NATIONAL WEATHER SERVICE TWIN CITIES/CHANHASSEN MN
1000 PM CDT THU JUL 24 2014


NOTE: "FAIR" INDICATES FEW OR NO CLOUDS BELOW 12,000 FEET WITH NO
SIGNIFICANT WEATHER AND/OR OBSTRUCTIONS TO VISIBILITY. N/A MEANS
CURRENT SKY AND/OR WEATHER CONDITIONS ARE NOT AVAILABLE.

MNZ060>063-068>070-250400-
   Twin Cities Metro

CITY           SKY/WX    TMP DP  RH WIND       PRES   REMARKS
TWIN CITIES    MOCLDY    74  60  61 SW8       29.95R
ST PAUL        MOCLDY    73  60  63 SW7       29.95R
CRYSTAL        CLEAR     73  60  63 SW3       29.94R
BLAINE         PTCLDY    73  63  68 CALM      29.96R
LAKEVILLE      CLEAR     66  61  82 CALM      29.97R
EDEN PRAIRIE   CLEAR     70  60  70 SW5       29.95R
SOUTH ST PAUL  PTCLDY    73  59  62 SW5       29.95R
LAKE ELMO      CLOUDY    70  61  73 CALM      29.97
$$
MNZ001>005-007-008-013>017-022>024-027-028-250400-
   Northwest Minnesota

CITY           SKY/WX    TMP DP  RH WIND       PRES   REMARKS
BEMIDJI        PTCLDY    68  56  65 SE10      29.85
HALLOCK        PTCLDY    70  64  83 SE9       29.78R
ROSEAU         MOCLDY    66  61  82 E8        29.82F
WARROAD        CLOUDY    66  63  88 E9        29.85F
THIEF RVR FALL MOCLDY    68  59  73 E10       29.81R
CROOKSTON      CLOUDY    68  61  77 SE8       29.79S
FOSSTON        MOCLDY    66  55  68 E5        29.83R
DETROIT LAKES  CLOUDY    70  61  73 SE16      29.81F
MOORHEAD       MOCLDY    72  64  78 S16G25    29.74R
PARK RAPIDS    PTCLDY    68  59  73 SE12      29.84F
$$
MNZ006-009>011-018-025>026-250400-
   North Central Minnesota

CITY           SKY/WX    TMP DP  RH WIND       PRES   REMARKS
BAUDETTE       CLOUDY    67  62  84 SE5       29.87F
FLAG ISLAND    MOCLDY    72  61  68 S9        29.84F
INTL FALLS     MOCLDY    61  58  90 SE5       29.89F
WASKISH        CLOUDY    64  61  88 E6        29.86F
BIG FORK       CLOUDY    64  61  88 S1        29.92F
LONGVILLE      PTCLDY    61  61 100 CALM      29.90F
GRAND RAPIDS   CLOUDY    64  59  82 SE5       29.92F
CRANE LAKE     MOCLDY    57  55  94 CALM      29.94R
ORR            MOCLDY    63  55  77 CALM      29.91S
COOK           CLOUDY    63  59  88 CALM      29.94R
$$
MNZ012-019>021-037-250400-
   Northeast Minnesota

CITY           SKY/WX    TMP DP  RH WIND       PRES   REMARKS
DULUTH         CLOUDY    68  58  70 S6        29.95F
ELY            CLOUDY    63  55  77 S3        29.94F
HIBBING        CLOUDY    67  57  70 CALM      29.93F
EVELETH        CLOUDY    63  55  77 CALM      29.95S
DULUTH HARBOR  CLOUDY    64  57  77 SE5       29.95F
TWO HARBORS    CLOUDY    63  57  82 CALM      29.93F
SILVER BAY     CLOUDY    61  61 100 CALM      29.93F
GRAND MARAIS     N/A     57  50  77 CALM      29.94F
G MARAIS ARPRT PTCLDY    54  50  87 CALM      29.98F
$$
MNZ029>031-032-039>041-046>048-054>057-064-250400-
   West Central Minnesota

CITY           SKY/WX    TMP DP  RH WIND       PRES   REMARKS
FERGUS FALLS   PTCLDY    70  61  73 SE14      29.83F
WHEATON        CLOUDY    64  61  88 E10       29.87S
MORRIS         CLEAR     64  63  94 E8        29.88R
ALEXANDRIA     CLOUDY    68  62  81 E7        29.95R
ELBOW LAKE     CLOUDY    69  61  75 SE13      29.87
WADENA         PTCLDY    66  61  82 SE9       29.87F
GLENWOOD       MOCLDY    64  61  88 E6        29.94S
APPLETON       MOCLDY    68  61  77 SE8       29.86F
BENSON         PTCLDY    66  61  82 SE8       29.88F
ORTONVILLE     CLOUDY    68  61  77 SE8       29.84S
MADISON        CLOUDY    70  63  78 SE9       29.85S
WILLMAR        MOCLDY    68  63  83 E8        29.93F
$$
MNZ033>034-036-042>043-049>051-058-059-250400-
   Central Minnesota

CITY           SKY/WX    TMP DP  RH WIND       PRES   REMARKS
ST CLOUD       PTCLDY    68  61  78 CALM      29.94R
SAUK CENTRE    MOCLDY    67  62  84 E5        29.94
PAYNESVILLE    CLEAR     65  59  79 E6        29.94S
AITKIN         MOCLDY    68  61  77 CALM      29.92F
PINE RIVER     CLOUDY    66  61  82 SE5       29.94F
BRAINERD       CLOUDY    66  61  84 S3        29.94F
STAPLES        PTCLDY    66  59  77 SE6       29.92F
LONG PRAIRIE   CLOUDY    64  61  88 E3        29.95
LITTLE FALLS   PTCLDY    64  61  88 CALM      29.95S
LITCHFIELD       N/A     68  63  83 CALM      29.97R
BUFFALO        CLEAR     70  60  70 CALM      29.97R
MAPLE LAKE     PTCLDY    69  63  81 CALM      29.97R
$$
MNZ037-044-045-052-053-250400-
   East Central Minnesota

CITY           SKY/WX    TMP DP  RH WIND       PRES   REMARKS
PRINCETON      CLEAR     68  63  83 CALM      29.96R
MORA           CLOUDY    68  61  77 CALM      29.97R
CAMBRIDGE      CLEAR     70  57  64 CALM      29.94R
RUSH CITY      CLOUDY    69  61  77 CALM      29.96R
MOOSE LAKE     MOCLDY    66  61  82 CALM      29.93F
HINCKLEY       MOCLDY    64  63  94 CALM      29.96
CLOQUET        DRIZZLE   68  57  68 CALM      29.96F
MCGREGOR       PTCLDY    66  61  82 SE5       29.95F
$$
MNZ071>073-080-081-089-090-097-098-250400-
   Southwest Minnesota

CITY           SKY/WX    TMP DP  RH WIND       PRES   REMARKS
MONTEVIDEO     CLOUDY    66  61  82 SE8       29.89S
GRANITE FALLS  CLOUDY    67  60  78 E6        29.90S
CANBY          MOCLDY    66  60  80 SE7       29.86S
MARSHALL       PTCLDY    66  57  72 S8        29.86S
REDWOOD FALLS  CLOUDY    67  61  81 E7        29.91R
OLIVIA         CLOUDY    68  61  77 E6        29.92R
PIPESTONE      PTCLDY    64  61  88 S8        29.86S
WINDOM         PTCLDY    64  59  82 S7        29.91S
WORTHINGTON    CLEAR     64  61  88 S7        29.90F
JACKSON        CLEAR     63  59  88 S7        29.92R
TRACY          MOCLDY    66  60  81 S8        29.88S
SLAYTON        PTCLDY    63  61  93 CALM      29.89F
$$
MNZ065>067-074>077-082>085-091>093-250400-
   South Central Minnesota

CITY           SKY/WX    TMP DP  RH WIND       PRES   REMARKS
MANKATO        MOCLDY    66  57  72 SE3       29.96R
NEW ULM        MOCLDY    64  63  94 E3        29.94R
ST JAMES       MOCLDY    64  61  88 E5        29.94R
FAIRMONT       CLEAR     63  55  77 S6        29.92R
GLENCOE        CLEAR     68  58  71 S3        29.96R
FARIBAULT      CLEAR     70  55  60 CALM      29.97R
OWATONNA       CLEAR     64  57  77 CALM      29.97R
WASECA         CLEAR     61  54  77 CALM      29.98R
ALBERT LEA     CLEAR     66  57  72 S5        29.97R
$$
MNZ078>079-086>088-094>096-250400-
   Southeast Minnesota

CITY           SKY/WX    TMP DP  RH WIND       PRES   REMARKS
ROCHESTER      CLEAR     65  58  78 S5        29.99R
RED WING       PTCLDY    68  61  77 CALM      29.95R
STANTON        CLEAR     67  59  76 SW3       29.95R
DODGE CENTER   CLEAR     66  61  82 SW3       29.98R
WINONA         CLEAR     70  61  73 CALM      29.96R
AUSTIN         CLEAR     64  57  77 CALM      29.97R
PRESTON        CLEAR     65  63  91 CALM      29.99R
$$
ABBREVIATIONS USED IN REMARKS
   TC - TEMPERATURES IN CELSIUS
  WCI - WIND CHILL INDEX
   HX - HEAT INDEX
  VSB - VISIBILITY
$$



USA.gov is the U.S. government's official web portal to all federal, state and local government web resources and services.